EETN

Tallinn/Ulemiste

Airport
ICAO code
EETN
Summary
ICAO Region
EUR
ICAO Territory
Location

Tallinn,

Coordinates
59° 24' 59" N , 24° 47' 57" E
KCC
Metar
Observation
EETN 052320Z 29011KT CAVOK 00/M02 Q1026
Station
Tallinn
Date/Time
2023-02-05 23:20:00
Wind direction
290°
Wind speed
11 kts
Lowest cloud amount
clouds and visibility OK
Temperature
0°C
Dew point
-2°C
Humidity
86%
QNH
1026 hPa
Weather condition
n/a

Description

International airport serving capital city of Estonia.

Climatology

Humid Continental climate (Köppen climate classification Dfb) - Variable weather patterns and a large seasonal temperature variance. Summers are often warm and humid with frequent thunderstorms and winters can be very cold with frequent snowfall and persistent snow cover.

Runways

Designator Length Width Surface Rops
8/26 3070 45 ASP Yes/Yes

Airport map

Aerial View

SKYbrary Partners:

Safety knowledge contributed by: